Other Surface Observations
Issued by NWS Charleston, SC

Home | Current Version | Previous Version | Text Only | Print | Product List | Glossary On
Versions: 1 2 3 4 5 6 7 8 9 10 11 12 13 14 15 16 17 18 19 20 21 22 23 24 25 26 27 28 29 30 31 32 33 34 35 36 37 38 39 40 41 42 43 44 45 46 47 48 49 50
000
SXUS52 KCHS 311110
OSOCHS

MARINE OBSERVATIONS
NATIONAL WEATHER SERVICE CHARLESTON SC
700 AM EDT SUN AUG 31 2014

...DOWNTOWN CHARLESTON AND HARBOR...

CITY           SKY/WX    TMP DP  RH WIND       PRES   REMARKS
WATERFRONT PRK   N/A     82 N/A N/A CALM        N/A
FORT JOHNSON   NOT AVBL

...LAKE MOULTRIE...

CITY           SKY/WX    TMP DP  RH WIND       PRES   REMARKS
PINOPOLIS        N/A     77  73  88 SE2       30.08R

...LAKE AND SUPPLEMENTAL COASTAL OBSERVATIONS...

STATION/POSITION TIME  TEMP    WIND        PRES    WAVE   SWELL
                       AIR SEA DIR/SP/G            HT/PER HT/PER/DIR
                 (UTC) (F)     (DEG/KT/KT) (MB)    (FT/S) (FT/S/D)
FORT PULASKI     1100   80     340/  3/  4 1020.8R
SAPELO ISLAND    1000   80     240/ 10     1020.0S
UPR LAKE MARION  NOT AVBL
WINYAH BAY       1000   80     240/  2     1020.0S
LAKE MURRAY      1000   79     210/  5/  7 1021.0R
ACE BASIN NERRS  1000   76        CALM     1020.0S


...C-MAN AND BUOY OBSERVATIONS...

STATION/POSITION TIME  TEMP    WIND        PRES    WAVE   SWELL
                       AIR SEA DIR/SP/G            HT/PER HT/PER/DIR
                 (UTC) (F)     (DEG/KT/KT) (MB)    (FT/S) (FT/S/D)
BUOY 41004       1100   82 83  270/  4/  6 1020.4R   3/ 9   3/ 9
BUOY 41008       1100   83 84  260/ 14/ 16 1020.4R   2/11   2/110/11
FOLLY BEACH CMAN 1000   81     200/  4/  5 1020.9R
CAPERS NS BUOY   1000   81     220/  2/  4   N/A
FRIPP NS BUOY    NOT AVBL
5E ST. MARYS GA  1100      84                N/A     2/10   2/120/11
FRYING PAN BUOY  NOT AVBL
BUOY 41025       1100   81     190/  8/ 10 1022.3R   3/10   3/120/10
CAPE LOOKOUT NC  1000   80     170/  6/  6 1021.5R
BUOY 41002       1007   81 83  160/  6/  8 1023.2R   3/ 9   3/130/ 9
BUOY 41010       1100   82 83  200/  4/  6 1021.1R   3/ 9   3/100/ 9
BUOY 41012       NOT AVBL
ST AUGUSTINE FL  1100   76     330/  5/  6 1021.6R


$$



USA.gov is the U.S. government's official web portal to all federal, state and local government web resources and services.